Fort Knox, KY

12:52 PM EDT on March 27, 2017 (GMT -0400)
Godman Army Air Field

Weather History for KFTK - March, 2013

Change the Weather History Date:

Thursday, March 14, 2013

  Actual Average Record
Temperature  
Mean Temperature 32 °F -  
Max Temperature 46 °F 51 °F 79 °F (2012)
Min Temperature 19 °F 32 °F 19 °F (2013)
Degree Days  
Heating Degree Days 33    
Moisture  
Dew Point 22 °F    
Average Humidity 68    
Maximum Humidity 93    
Minimum Humidity 33    
Precipitation  
Precipitation 0.00 in - - ()
Sea Level Pressure  
Sea Level Pressure 30.32 in    
Wind  
Wind Speed 4 mph (SW)    
Max Wind Speed 10 mph    
Max Gust Speed 16 mph    
Visibility 8 miles    
Events Snow    
Averages and records for this station are not official NWS values.
T = Trace of Precipitation, MM = Missing Value Source: NWS Daily Summary

Daily Weather History Graph

Daily Weather History Graph

Search for Another Location

Airport or City:

Trip Planner

Search our weather history database for the weather conditions in past years. The results will help you decide how hot, cold, wet, or windy it might be!

Date:

Astronomy

Mar. 14, 2013 Rise Set
Actual Time 7:56 AM EDT 7:50 PM EDT
Civil Twilight 7:29 AM EDT 8:16 PM EDT
Nautical Twilight 6:59 AM EDT 8:47 PM EDT
Astronomical Twilight 6:28 AM EDT 9:17 PM EDT
Moon 9:13 AM EDT (3/14) 11:02 PM EDT (3/14)
Length of Visible Light 12h 46m
Length of Day
11h 54m
Waxing Crescent, 9% of the Moon is Illuminated
Mar 14
Waxing Crescent
Mar 19
First Quarter
Mar 27
Full
Apr 3
Last Quarter
Apr 10
New

Hourly Weather History & Observations

Time (EDT) Temp. Windchill Dew Point Humidity Pressure Visibility Wind Dir Wind Speed Gust Speed Precip Events Conditions
12:55 AM 22.8 °F 16.7 °F 18.5 °F 83% 30.40 in 10.0 mi SW 4.6 mph - N/A   Clear
1:55 AM 22.1 °F 17.4 °F 18.0 °F 84% 30.40 in 10.0 mi SW 3.5 mph - N/A   Clear
2:55 AM 22.6 °F 18.0 °F 17.1 °F 79% 30.40 in 10.0 mi WSW 3.5 mph - N/A   Clear
3:55 AM 23.0 °F - 17.1 °F 78% 30.39 in 10.0 mi Calm Calm - N/A   Clear
4:55 AM 20.7 °F 15.8 °F 16.3 °F 83% 30.39 in 10.0 mi SW 3.5 mph - N/A   Clear
5:55 AM 21.0 °F 16.2 °F 15.4 °F 79% 30.40 in 10.0 mi West 3.5 mph - N/A   Clear
6:55 AM 19.2 °F 14.1 °F 15.3 °F 85% 30.40 in 10.0 mi WSW 3.5 mph - N/A   Clear
7:55 AM 20.1 °F - 16.9 °F 87% 30.40 in 10.0 mi Calm Calm - N/A   Clear
8:55 AM 23.4 °F - 18.7 °F 82% 30.41 in 10.0 mi Calm Calm - N/A   Clear
9:55 AM 29.8 °F 23.9 °F 22.5 °F 74% 30.42 in 10.0 mi SW 5.8 mph - N/A   Clear
10:55 AM 34.7 °F 30.6 °F 21.7 °F 59% 30.40 in 10.0 mi SW 4.6 mph - N/A   Clear
11:55 AM 37.6 °F 32.3 °F 19.0 °F 47% 30.38 in 10.0 mi SW 6.9 mph - N/A   Clear
12:55 PM 39.6 °F 35.4 °F 19.8 °F 45% 30.38 in 10.0 mi SW 5.8 mph - N/A   Partly Cloudy
1:55 PM 42.3 °F 36.8 °F 19.4 °F 40% 30.36 in 10.0 mi West 9.2 mph - N/A   Overcast
2:55 PM 43.5 °F 38.3 °F 17.4 °F 35% 30.32 in 10.0 mi WSW 9.2 mph - N/A   Overcast
3:55 PM 45.9 °F 40.8 °F 17.8 °F 33% 30.29 in 10.0 mi WSW 10.4 mph - N/A   Partly Cloudy
4:55 PM 45.7 °F 41.0 °F 19.0 °F 35% 30.27 in 10.0 mi WSW 9.2 mph - N/A   Overcast
5:55 PM 43.9 °F 41.3 °F 19.0 °F 37% 30.25 in 10.0 mi WSW 4.6 mph - N/A   Overcast
6:55 PM 41.2 °F 37.3 °F 25.0 °F 53% 30.27 in 10.0 mi SW 5.8 mph 16.1 mph 0.00 in   Overcast
7:34 PM 39.2 °F 35.9 °F 23.0 °F 52% 30.24 in 2.5 mi Variable 4.6 mph - N/A   Unknown
7:40 PM 39.2 °F 34.2 °F 26.6 °F 61% 30.24 in 3.0 mi SSW 6.9 mph - N/A   Unknown
7:55 PM 37.2 °F 31.2 °F 28.9 °F 72% 30.28 in 10.0 mi SW 8.1 mph - 0.00 in   Overcast
8:44 PM 37.4 °F 32.8 °F 30.2 °F 75% 30.24 in 7.0 mi SW 5.8 mph - N/A Snow Light Snow
8:55 PM 36.5 °F 30.3 °F 30.0 °F 77% 30.27 in 6.0 mi SW 8.1 mph - 0.00 in Snow Light Snow
9:45 PM 35.6 °F 32.8 °F 32.0 °F 87% 30.23 in 2.5 mi SSW 3.5 mph - N/A Snow Light Snow
9:55 PM 35.2 °F - 30.6 °F 83% 30.27 in 2.0 mi Calm Calm - 0.00 in Snow Light Snow
10:13 PM 33.8 °F 30.8 °F 32.0 °F 93% 30.24 in 6.0 mi SSE 3.5 mph - N/A Snow Light Snow
10:55 PM 35.2 °F 31.2 °F 32.4 °F 89% 30.25 in 7.0 mi SE 4.6 mph - 0.00 in Snow Light Snow
11:55 PM 35.4 °F 31.5 °F 32.4 °F 89% 30.23 in 10.0 mi ESE 4.6 mph - N/A   Overcast